Project,Study,Ord_Occ,Event_Num,Cast_ID,Date_Time_UTC,Date_Time_PST,Lat_Dec,Lon_Dec,Sta_ID,Line,Sta,Depth,Pressure,PrQ,Temp1,Temp1Q,Temp2,Temp2Q,TempAve,Salt1,Salt1Q,Salt1_Corr,Salt2,Salt2Q,Salt2_Corr,SaltAve_Corr,Ox1,Ox1Q,Ox1_CruiseCorr,Ox1_StaCorr,Ox2,Ox2Q,Ox2_CruiseCorr,Ox2_StaCorr,OxAve_StaCorr,Ox1uM,Ox1uM_CruiseCorr,Ox1uM_StaCorr,Ox2uM,Ox2uM_CruiseCorr,Ox2uM_StaCorr,OxAveuM_StaCorr,FluorV,FluorQ,EstChl_CruiseCorr,EstChl_StaCorr,ISUSV,ISUSQ,EstNO3_CruiseCorr,EstNO3_StaCorr,SigThetaTS1,SigThetaTS1Q,SigThetaTS2,SigThetaTS2Q,BAT,XMiss,TransQ,pH,pHQ,SPAR,SPARQ,PAR,PARQ,PoT1,PoT2,DynHt,SVA,OxSat1,OxSat2,BTL_Depth,BTL_Temp,SaltB,OxB,OxBuM,Chl-a,Phaeo,NO3,NO2,NH4,PO4,SIL
CalCOFI,2105SH,005,,2105_005d,05-May-2021 06:43:03,04-May-2021 22:43:03,32.51372,-118.21484,093.3 040.0,093.3,040.0,2.000,2.014,,16.6822,,16.6857,,16.6840,33.6392,,33.6404,33.6396,,33.6415,33.6410,5.6027,,5.9254,5.9060,5.6543,,5.9161,5.8764,5.8912,244.221,257.8074,223.7173,246.471,268.8879,224.3344,224.0259,0.0950,,0.4793,0.4024,2.6637,,0.0000,,24.5445,,24.5439,,,,,,,,,,,16.6819,16.6854,-0.0009,338.214,100.883,101.819,,,,,,,,,,,,
CalCOFI,2105SH,005,,2105_005d,05-May-2021 06:43:16,04-May-2021 22:43:16,32.51372,-118.21484,093.3 040.0,093.3,040.0,3.000,3.021,,16.6894,,16.6900,,16.6897,33.6396,,33.6408,33.6400,,33.6419,33.6414,5.5821,,5.9039,5.8843,5.6581,,5.9201,5.8804,5.8824,243.324,256.8697,222.8776,246.638,267.9191,224.4903,223.6840,0.0986,,0.5051,0.4260,2.6641,,0.0000,,24.5431,,24.5433,,,,,,,,,,,16.6890,16.6896,0.0070,338.376,100.526,101.897,3,16.707,33.6379,5.883,256.44,0.325,0.140,0.25,0.00,0.00,0.25,2.61
CalCOFI,2105SH,005,,2105_005d,05-May-2021 06:43:22,04-May-2021 22:43:22,32.51372,-118.21484,093.3 040.0,093.3,040.0,4.000,4.028,,16.6901,,16.6922,,16.6912,33.6398,,33.6410,33.6402,,33.6421,33.6416,5.5830,,5.9048,5.8853,5.6558,,5.9177,5.8780,5.8817,243.362,256.9094,222.9132,246.538,267.9601,224.3969,223.6551,0.0940,,0.4721,0.3959,2.6636,,0.0000,,24.5431,,24.5429,,,,,,,,,,,16.6895,16.6916,0.0139,338.408,100.543,101.860,,,,,,,,,,,,
CalCOFI,2105SH,005,,2105_005d,05-May-2021 06:43:24,04-May-2021 22:43:24,32.51372,-118.21484,093.3 040.0,093.3,040.0,5.000,5.035,,16.6899,,16.6878,,16.6889,33.6400,,33.6412,33.6400,,33.6419,33.6416,5.5790,,5.9006,5.8811,5.6505,,5.9122,5.8725,5.8768,243.191,256.7307,222.7531,246.306,267.7755,224.1803,223.4667,0.0972,,0.4951,0.4169,2.6635,,0.0000,,24.5434,,24.5439,,,,,,,,,,,16.6891,16.6869,0.0173,338.420,100.472,101.755,,,,,,,,,,,,
CalCOFI,2105SH,005,,2105_005d,05-May-2021 06:43:27,04-May-2021 22:43:27,32.51372,-118.21484,093.3 040.0,093.3,040.0,6.000,6.043,,16.6856,,16.6877,,16.6867,33.6401,,33.6413,33.6400,,33.6419,33.6416,5.5607,,5.8815,5.8618,5.6583,,5.9203,5.8806,5.8712,242.393,255.8964,222.0061,246.644,266.9136,224.4959,223.2510,0.0953,,0.4814,0.4044,2.6640,,0.0000,,24.5445,,24.5440,,,,,,,,,,,16.6846,16.6867,0.0207,338.345,100.134,101.895,,,,,,,,,,,,
CalCOFI,2105SH,005,,2105_005d,05-May-2021 06:43:28,04-May-2021 22:43:28,32.51372,-118.21484,093.3 040.0,093.3,040.0,7.000,7.050,,16.5988,,16.6254,,16.6121,33.6437,,33.6449,33.6348,,33.6367,33.6408,5.5935,,5.9158,5.8963,5.6725,,5.9350,5.8953,5.8958,243.816,257.3840,223.3382,247.261,268.4505,225.0721,224.2052,0.0968,,0.4922,0.4142,2.6648,,0.0000,,24.5675,,24.5544,,,,,,,,,,,16.5977,16.6243,0.0241,336.189,100.557,102.024,,,,,,,,,,,,
CalCOFI,2105SH,005,,2105_005d,05-May-2021 06:43:30,04-May-2021 22:43:30,32.51372,-118.21484,093.3 040.0,093.3,040.0,8.000,8.057,,16.4170,,16.4230,,16.4200,33.6397,,33.6409,33.6336,,33.6355,33.6382,5.6311,,5.9551,5.9359,5.7113,,5.9752,5.9357,5.9358,245.446,259.0880,224.8640,248.945,270.2109,226.6448,225.7544,0.0945,,0.4757,0.3991,2.6664,,0.0000,,24.6065,,24.6004,,,,,,,,,,,16.4157,16.4217,0.0275,332.506,100.874,102.319,,,,,,,,,,,,
CalCOFI,2105SH,005,,2105_005d,05-May-2021 06:43:32,04-May-2021 22:43:32,32.51372,-118.21484,093.3 040.0,093.3,040.0,9.000,9.064,,16.3685,,16.3712,,16.3699,33.6370,,33.6382,33.6329,,33.6348,33.6365,5.6684,,5.9941,5.9752,5.7592,,6.0248,5.9855,5.9804,247.067,260.7826,226.3814,251.029,271.9615,228.5910,227.4862,0.0994,,0.5109,0.4313,2.6686,,0.0000,,24.6156,,24.6118,,,,,,,,,,,16.3670,16.3698,0.0308,331.672,101.444,103.073,,,,,,,,,,,,
CalCOFI,2105SH,005,,2105_005d,05-May-2021 06:43:34,04-May-2021 22:43:34,32.51372,-118.21484,093.3 040.0,093.3,040.0,10.000,10.071,,16.3190,,16.3203,,16.3197,33.6344,,33.6356,33.6319,,33.6338,33.6347,5.6924,,6.0192,6.0005,5.7628,,6.0285,5.9893,5.9949,248.115,261.8782,227.3625,251.181,273.0934,228.7329,228.0477,0.0994,,0.5109,0.4313,2.6707,,0.0000,,24.6250,,24.6228,,,,,,,,,,,16.3174,16.3187,0.0342,330.805,101.775,103.034,,,,,,,,,,,,
CalCOFI,2105SH,005,,2105_005d,05-May-2021 06:43:36,04-May-2021 22:43:36,32.51372,-118.21484,093.3 040.0,093.3,040.0,11.000,11.078,,16.3031,,16.3022,,16.3027,33.6341,,33.6353,33.6316,,33.6335,33.6344,5.6616,,5.9870,5.9681,5.7176,,5.9817,5.9422,5.9552,246.770,260.4722,226.1034,249.213,271.6408,226.8951,226.4993,0.1026,,0.5338,0.4523,2.6719,,0.0000,,24.6284,,24.6267,,,,,,,,,,,16.3013,16.3005,0.0375,330.511,101.192,102.190,11,16.127,,,259.37,0.530,0.175,0.77,0.00,0.00,0.31,2.98
CalCOFI,2105SH,005,,2105_005d,05-May-2021 06:43:37,04-May-2021 22:43:37,32.51372,-118.21484,093.3 040.0,093.3,040.0,12.000,12.085,,16.2545,,16.2585,,16.2565,33.6358,,33.6370,33.6295,,33.6314,33.6342,5.6415,,5.9660,5.9469,5.7128,,5.9767,5.9373,5.9421,245.892,259.5543,225.2815,249.000,270.6925,226.6961,225.9888,0.1039,,0.5431,0.4608,2.6719,,0.0000,,24.6409,,24.6351,,,,,,,,,,,16.2526,16.2566,0.0408,329.353,100.738,102.015,,,,,,,,,,,,
CalCOFI,2105SH,005,,2105_005d,05-May-2021 06:43:39,04-May-2021 22:43:39,32.51373,-118.21484,093.3 040.0,093.3,040.0,13.000,13.092,,16.1392,,16.1402,,16.1397,33.6345,,33.6357,33.6293,,33.6312,33.6335,5.6615,,5.9869,5.9680,5.7214,,5.9856,5.9462,5.9571,246.758,260.4596,226.0922,249.366,271.6278,227.0379,226.5651,0.1033,,0.5388,0.4569,2.6708,,0.0000,,24.6663,,24.6621,,,,,,,,,,,16.1371,16.1382,0.0441,326.966,100.868,101.932,,,,,,,,,,,,
CalCOFI,2105SH,005,,2105_005d,05-May-2021 06:43:40,04-May-2021 22:43:40,32.51374,-118.21484,093.3 040.0,093.3,040.0,14.000,14.099,,16.0947,,16.0957,,16.0952,33.6330,,33.6342,33.6287,,33.6306,33.6324,5.6345,,5.9587,5.9395,5.6912,,5.9543,5.9148,5.9272,245.575,259.2229,224.9848,248.051,270.3502,225.8099,225.3974,0.1029,,0.5360,0.4543,2.6684,,0.0000,,24.6753,,24.6717,,,,,,,,,,,16.0925,16.0935,0.0474,326.143,100.297,101.307,,,,,,,,,,,,
CalCOFI,2105SH,005,,2105_005d,05-May-2021 06:43:42,04-May-2021 22:43:42,32.51372,-118.21484,093.3 040.0,093.3,040.0,15.000,15.106,,15.9930,,15.9951,,15.9941,33.6338,,33.6350,33.6257,,33.6276,33.6313,5.6046,,5.9274,5.9080,5.6733,,5.9358,5.8962,5.9021,244.266,257.8545,223.7594,247.266,268.9365,225.0768,224.4181,0.1067,,0.5632,0.4792,2.6636,,0.0000,,24.6989,,24.6922,,,,,,,,,,,15.9906,15.9928,0.0507,323.919,99.567,100.788,,,,,,,,,,,,
CalCOFI,2105SH,005,,2105_005d,05-May-2021 06:43:44,04-May-2021 22:43:44,32.51372,-118.21484,093.3 040.0,093.3,040.0,16.000,16.114,,15.8246,,15.8266,,15.8256,33.6342,,33.6354,33.6212,,33.6231,33.6293,5.6008,,5.9234,5.9040,5.6666,,5.9289,5.8892,5.8966,244.092,257.6726,223.5965,246.962,268.7485,224.7929,224.1947,0.1112,,0.5952,0.5087,2.6559,,0.0000,,24.7373,,24.7268,,,,,,,,,,,15.8222,15.8241,0.0539,320.293,99.171,100.332,,,,,,,,,,,,
CalCOFI,2105SH,005,,2105_005d,05-May-2021 06:43:46,04-May-2021 22:43:46,32.51373,-118.21484,093.3 040.0,093.3,040.0,17.000,17.121,,15.4713,,15.4801,,15.4757,33.6331,,33.6343,33.6159,,33.6178,33.6261,5.6113,,5.9344,5.9151,5.6365,,5.8977,5.8579,5.8865,244.532,258.1326,224.0084,245.634,269.2237,223.5527,223.7806,0.1682,,0.9933,0.8828,2.6410,,0.0000,,24.8153,,24.8002,,,,,,,,,,,15.4687,15.4775,0.0571,312.887,98.667,99.118,,,,,,,,,,,,
CalCOFI,2105SH,005,,2105_005d,05-May-2021 06:43:48,04-May-2021 22:43:48,32.51374,-118.21484,093.3 040.0,093.3,040.0,18.000,18.128,,15.1020,,15.1060,,15.1040,33.6330,,33.6342,33.6123,,33.6142,33.6242,5.5730,,5.8943,5.8747,5.5902,,5.8497,5.8098,5.8423,242.844,256.3679,222.4283,243.596,267.4007,221.6495,222.0389,0.2550,,1.5696,1.4523,2.6223,,0.0000,,24.8965,,24.8797,,,,,,,,,,,15.0993,15.1033,0.0602,305.180,97.279,97.574,,,,,,,,,,,,
CalCOFI,2105SH,005,,2105_005d,05-May-2021 06:43:49,04-May-2021 22:43:49,32.51373,-118.21484,093.3 040.0,093.3,040.0,19.000,19.135,,14.8787,,14.8809,,14.8798,33.6314,,33.6326,33.6133,,33.6152,33.6239,5.4941,,5.8118,5.7916,5.5080,,5.7646,5.7243,5.7580,239.397,252.7644,219.2015,240.006,263.6779,218.2969,218.7492,0.2922,,1.8055,1.6964,2.6065,,0.0000,,24.9438,,24.9293,,,,,,,,,,,14.8759,14.8781,0.0632,300.701,95.476,95.711,,,,,,,,,,,,
CalCOFI,2105SH,005,,2105_005d,05-May-2021 06:43:52,04-May-2021 22:43:52,32.51374,-118.21484,093.3 040.0,093.3,040.0,20.000,20.142,,14.5623,,14.5740,,14.5682,33.6373,,33.6385,33.6123,,33.6142,33.6264,5.3131,,5.6225,5.6010,5.3195,,5.5693,5.5282,5.5646,231.491,244.4995,211.8007,231.777,255.1394,210.6121,211.2064,0.3078,,1.9025,1.7988,2.5769,,0.0000,,25.0162,,24.9944,,,,,,,,,,,14.5593,14.5711,0.0663,293.828,91.752,91.870,,,,,,,,,,,,
CalCOFI,2105SH,005,,2105_005d,05-May-2021 06:43:54,04-May-2021 22:43:54,32.51374,-118.21484,093.3 040.0,093.3,040.0,21.000,21.149,,13.9768,,13.9745,,13.9757,33.6460,,33.6472,33.6162,,33.6181,33.6327,5.1993,,5.5035,5.4811,5.2527,,5.5001,5.4588,5.4700,226.507,239.2892,207.1351,228.836,249.7567,207.8655,207.5003,0.3243,,2.0038,1.9071,2.5451,,0.0000,,25.1463,,25.1238,,,,,,,,,,,13.9737,13.9715,0.0692,281.458,88.734,89.624,,,,,,,,,,,,
CalCOFI,2105SH,005,,2105_005d,05-May-2021 06:43:55,04-May-2021 22:43:55,32.51374,-118.21484,093.3 040.0,093.3,040.0,22.000,22.156,,13.8955,,13.8951,,13.8953,33.6381,,33.6393,33.6197,,33.6216,33.6305,5.1586,,5.4610,5.4382,5.2489,,5.4962,5.4548,5.4465,224.730,237.4315,205.4717,228.667,247.8375,207.7077,206.5897,0.3178,,1.9640,1.8644,2.5296,,0.0000,,25.1571,,25.1429,,,,,,,,,,,13.8924,13.8919,0.0720,280.458,87.890,89.418,,,,,,,,,,,,
CalCOFI,2105SH,005,,2105_005d,05-May-2021 06:43:56,04-May-2021 22:43:56,32.51374,-118.21484,093.3 040.0,093.3,040.0,23.000,23.164,,13.7260,,13.7258,,13.7259,33.6419,,33.6431,33.6205,,33.6224,33.6328,5.1660,,5.4687,5.4460,5.2570,,5.5046,5.4633,5.4547,225.045,237.7608,205.7666,229.012,248.1777,208.0299,206.8983,0.3341,,2.0633,1.9714,2.5109,,0.0000,,25.1949,,25.1784,,,,,,,,,,,13.7228,13.7226,0.0748,276.880,87.716,89.248,,,,,,,,,,,,
CalCOFI,2105SH,005,,2105_005d,05-May-2021 06:43:59,04-May-2021 22:43:59,32.51374,-118.21484,093.3 040.0,093.3,040.0,24.000,24.171,,13.6336,,13.6628,,13.6482,33.6356,,33.6368,33.6258,,33.6277,33.6323,5.1393,,5.4408,5.4179,5.2158,,5.4619,5.4204,5.4192,223.878,236.5409,204.6741,227.214,246.9174,206.3508,205.5125,0.3486,,2.1506,2.0665,2.4527,,0.0000,,25.2090,,25.1955,,,,,,,,,,,13.6302,13.6595,0.0776,275.561,87.094,88.438,,,,,,,,,,,,
CalCOFI,2105SH,005,,2105_005d,05-May-2021 06:44:01,04-May-2021 22:44:01,32.51374,-118.21484,093.3 040.0,093.3,040.0,25.000,25.178,,13.6226,,13.6241,,13.6234,33.6379,,33.6391,33.6302,,33.6321,33.6356,5.0959,,5.3954,5.3722,5.1533,,5.3972,5.3554,5.3638,221.985,234.5619,202.9021,224.489,244.8729,203.8060,203.3541,0.3356,,2.0724,1.9812,2.4157,,0.0000,,25.2131,,25.2068,,,,,,,,,,,13.6191,13.6206,0.0804,275.206,86.340,87.312,,,,,,,,,,,,
CalCOFI,2105SH,005,,2105_005d,05-May-2021 06:44:03,04-May-2021 22:44:03,32.51374,-118.21484,093.3 040.0,093.3,040.0,26.000,26.185,,13.5861,,13.5856,,13.5859,33.6396,,33.6408,33.6315,,33.6334,33.6371,4.9808,,5.2750,5.2510,4.9960,,5.2343,5.1918,5.2214,216.970,229.3192,198.2075,217.632,239.4567,197.4024,197.8050,0.3394,,2.0953,2.0062,2.3861,,0.0000,,25.2219,,25.2157,,,,,,,,,,,13.5824,13.5820,0.0831,274.394,84.328,84.580,,,,,,,,,,,,
CalCOFI,2105SH,005,,2105_005d,05-May-2021 06:44:04,04-May-2021 22:44:04,32.51374,-118.21484,093.3 040.0,093.3,040.0,27.000,27.192,,13.3972,,13.3976,,13.3974,33.6500,,33.6512,33.6304,,33.6323,33.6418,4.8420,,5.1299,5.1047,4.8798,,5.1139,5.0710,5.0879,210.912,222.9862,192.5366,212.564,232.9140,192.6696,192.6031,0.3556,,2.1923,2.1125,2.3583,,0.0000,,25.2683,,25.2530,,,,,,,,,,,13.3935,13.3939,0.0859,270.002,81.668,82.296,,,,,,,,,,,,
CalCOFI,2105SH,005,,2105_005d,05-May-2021 06:44:06,04-May-2021 22:44:06,32.51375,-118.21484,093.3 040.0,093.3,040.0,28.000,28.200,,13.1687,,13.1686,,13.1687,33.6499,,33.6511,33.6353,,33.6372,33.6442,4.7767,,5.0616,5.0360,4.8368,,5.0694,5.0263,5.0312,208.062,220.0068,189.8687,210.683,229.8360,190.9130,190.3909,0.3775,,2.3214,2.2562,2.3371,,0.0000,,25.3142,,25.3030,,,,,,,,,,,13.1648,13.1647,0.0886,265.649,80.190,81.191,,,,,,,,,,,,
CalCOFI,2105SH,005,,2105_005d,05-May-2021 06:44:07,04-May-2021 22:44:07,32.51376,-118.21484,093.3 040.0,093.3,040.0,29.000,29.207,,13.0752,,13.0748,,13.0750,33.6498,,33.6510,33.6359,,33.6378,33.6444,4.7502,,5.0339,5.0081,4.8423,,5.0751,5.0320,5.0201,206.901,218.7931,188.7819,210.917,228.5822,191.1315,189.9567,0.3632,,2.2374,2.1623,2.3155,,0.0000,,25.3328,,25.3221,,,,,,,,,,,13.0712,13.0709,0.0912,263.905,79.590,81.127,,,,,,,,,,,,
CalCOFI,2105SH,005,,2105_005d,05-May-2021 06:44:10,04-May-2021 22:44:10,32.51376,-118.21484,093.3 040.0,093.3,040.0,30.000,30.214,,12.9921,,12.9891,,12.9906,33.6473,,33.6485,33.6410,,33.6429,33.6457,4.5482,,4.8226,4.7953,4.4725,,4.6920,4.6474,4.7214,198.100,209.5925,180.5433,194.804,219.0771,176.0840,178.3137,0.3566,,2.1983,2.1190,2.2390,,0.0000,,25.3474,,25.3431,,,,,,,,,,,12.9880,12.9850,0.0942,262.535,76.073,74.801,,,,,,,,,,,,
CalCOFI,2105SH,005,,2105_005d,05-May-2021 06:44:13,04-May-2021 22:44:13,32.51376,-118.21482,093.3 040.0,093.3,040.0,31.000,31.221,,12.7809,,12.7670,,12.7740,33.6666,,33.6678,33.6331,,33.6350,33.6514,3.8467,,4.0890,4.0564,3.8344,,4.0311,3.9838,4.0201,167.537,177.6420,151.9331,167.004,186.0689,150.1224,151.0278,0.3475,,2.1440,2.0593,2.1715,,0.0000,,25.4040,,25.3808,,,,,,,,,,,12.7767,12.7628,0.0970,257.172,64.069,63.830,31,12.318,,, ,,,,,,,
CalCOFI,2105SH,005,,2105_005d,05-May-2021 06:44:13,04-May-2021 22:44:13,32.51376,-118.21482,093.3 040.0,093.3,040.0,32.000,32.228,,12.0157,,12.0038,,12.0098,33.7146,,33.7158,33.6365,,33.6384,33.6771,3.8182,,4.0592,4.0264,3.8940,,4.0928,4.0458,4.0361,166.264,176.3112,150.7415,169.578,184.6941,152.5262,151.6339,0.3192,,1.9726,1.8736,2.1475,,0.0000,,25.5884,,25.5300,,,,,,,,,,,12.0116,11.9997,0.0995,239.621,62.606,63.801,,,,,,,,,,,,
CalCOFI,2105SH,005,,2105_005d,05-May-2021 06:44:15,04-May-2021 22:44:15,32.51376,-118.21482,093.3 040.0,093.3,040.0,33.000,33.236,,11.8216,,11.8315,,11.8266,33.6877,,33.6889,33.6602,,33.6621,33.6755,3.8079,,4.0484,4.0155,3.8606,,4.0582,4.0111,4.0133,165.816,175.8428,150.3221,168.114,184.2102,151.1590,150.7406,0.2635,,1.6241,1.5081,2.0803,,0.0000,,25.6041,,25.5808,,,,,,,,,,,11.8174,11.8273,0.1020,238.143,62.172,63.034,,,,,,,,,,,,
CalCOFI,2105SH,005,,2105_005d,05-May-2021 06:44:19,04-May-2021 22:44:19,32.51376,-118.21482,093.3 040.0,093.3,040.0,34.000,34.243,,11.6031,,11.5660,,11.5846,33.6942,,33.6954,33.6730,,33.6749,33.6852,3.5507,,3.7794,3.7446,3.5713,,3.7586,3.7102,3.7274,154.607,164.1250,139.8293,155.506,172.1045,139.3847,139.6070,0.2283,,1.3962,1.2771,1.9480,,0.0000,,25.6499,,25.6402,,,,,,,,,,,11.5988,11.5618,0.1046,233.801,57.709,57.989,,,,,,,,,,,,
CalCOFI,2105SH,005,,2105_005d,05-May-2021 06:44:20,04-May-2021 22:44:20,32.51376,-118.21482,093.3 040.0,093.3,040.0,35.000,35.250,,11.4693,,11.4688,,11.4691,33.6947,,33.6959,33.6803,,33.6822,33.6891,3.4759,,3.7012,3.6658,3.5134,,3.6986,3.6500,3.6579,151.349,160.7190,136.7795,152.981,168.5858,137.0267,136.9031,0.1921,,1.1556,1.0396,1.9179,,0.0000,,25.6749,,25.6638,,,,,,,,,,,11.4650,11.4644,0.1070,231.441,56.335,56.936,,,,,,,,,,,,
CalCOFI,2105SH,005,,2105_005d,05-May-2021 06:44:21,04-May-2021 22:44:21,32.51376,-118.21480,093.3 040.0,093.3,040.0,36.000,36.257,,11.3823,,11.3808,,11.3816,33.7026,,33.7038,33.6853,,33.6872,33.6955,3.4298,,3.6530,3.6172,3.4778,,3.6617,3.6130,3.6151,149.337,158.6157,134.8960,151.431,166.4129,135.5792,135.2376,0.1865,,1.1178,1.0028,1.8843,,0.0000,,25.6970,,25.6838,,,,,,,,,,,11.3778,11.3763,0.1093,229.360,55.487,56.257,,,,,,,,,,,,
CalCOFI,2105SH,005,,2105_005d,05-May-2021 06:44:22,04-May-2021 22:44:22,32.51376,-118.21482,093.3 040.0,093.3,040.0,37.000,37.265,,11.2547,,11.2547,,11.2547,33.7094,,33.7106,33.6961,,33.6980,33.7043,3.4076,,3.6298,3.5939,3.4633,,3.6467,3.5979,3.5959,148.367,157.6017,133.9880,150.791,165.3653,134.9815,134.4848,0.1737,,1.0309,0.9188,1.8431,,0.0000,,25.7255,,25.7152,,,,,,,,,,,11.2501,11.2501,0.1115,226.663,54.982,55.875,,,,,,,,,,,,
CalCOFI,2105SH,005,,2105_005d,05-May-2021 06:44:25,04-May-2021 22:44:25,32.51376,-118.21482,093.3 040.0,093.3,040.0,38.000,38.272,,11.2055,,11.2052,,11.2054,33.7103,,33.7115,33.7021,,33.7040,33.7078,3.3650,,3.5852,3.5490,3.4373,,3.6198,3.5709,3.5600,146.509,155.6593,132.2487,149.659,163.3586,133.9244,133.0866,0.1639,,0.9638,0.8545,1.7802,,0.0000,,25.7351,,25.7288,,,,,,,,,,,11.2009,11.2005,0.1138,225.771,54.237,55.399,,,,,,,,,,,,
CalCOFI,2105SH,005,,2105_005d,05-May-2021 06:44:29,04-May-2021 22:44:29,32.51376,-118.21482,093.3 040.0,093.3,040.0,39.000,39.279,,11.1797,,11.1795,,11.1796,33.7125,,33.7137,33.7076,,33.7095,33.7116,3.3305,,3.5491,3.5126,3.3901,,3.5709,3.5218,3.5172,145.007,154.0891,130.8427,147.603,161.7365,132.0043,131.4235,0.1544,,0.8984,0.7922,1.7131,,0.0000,,25.7415,,25.7378,,,,,,,,,,,11.1750,11.1747,0.1161,225.182,53.653,54.611,,,,,,,,,,,,
CalCOFI,2105SH,005,,2105_005d,05-May-2021 06:44:30,04-May-2021 22:44:30,32.51376,-118.21482,093.3 040.0,093.3,040.0,40.000,40.286,,11.1681,,11.1666,,11.1674,33.7147,,33.7159,33.7092,,33.7111,33.7135,3.3000,,3.5172,3.4805,3.3496,,3.5289,3.4797,3.4801,143.678,152.6998,129.5986,145.837,160.3011,130.3551,129.9769,0.1496,,0.8651,0.7607,1.6986,,0.0000,,25.7453,,25.7413,,,,,,,,,,,11.1632,11.1617,0.1184,224.846,53.148,53.944,,,,,,,,,,,,
CalCOFI,2105SH,005,,2105_005d,05-May-2021 06:44:31,04-May-2021 22:44:31,32.51376,-118.21482,093.3 040.0,093.3,040.0,41.000,41.294,,11.1405,,11.1405,,11.1405,33.7174,,33.7186,33.7121,,33.7140,33.7163,3.2741,,3.4902,3.4532,3.3331,,3.5118,3.4625,3.4579,142.550,151.5206,128.5427,145.121,159.0829,129.6865,129.1146,0.1421,,0.8130,0.7115,1.6874,,0.0000,,25.7525,,25.7483,,,,,,,,,,,11.1354,11.1355,0.1206,224.188,52.702,53.650,,,,,,,,,,,,
CalCOFI,2105SH,005,,2105_005d,05-May-2021 06:44:32,04-May-2021 22:44:32,32.51376,-118.21482,093.3 040.0,093.3,040.0,42.000,42.301,,11.0893,,11.0948,,11.0921,33.7225,,33.7237,33.7166,,33.7185,33.7211,3.2717,,3.4876,3.4507,3.3239,,3.5023,3.4530,3.4519,142.442,151.4077,128.4416,144.719,158.9663,129.3111,128.8764,0.1428,,0.8179,0.7161,1.6727,,0.0000,,25.7656,,25.7601,,,,,,,,,,,11.0842,11.0897,0.1229,222.959,52.607,53.452,,,,,,,,,,,,
CalCOFI,2105SH,005,,2105_005d,05-May-2021 06:44:36,04-May-2021 22:44:36,32.51376,-118.21480,093.3 040.0,093.3,040.0,43.000,43.308,,11.0876,,11.0541,,11.0709,33.7219,,33.7231,33.7203,,33.7222,33.7227,3.2098,,3.4229,3.3855,3.2518,,3.4276,3.3780,3.3818,139.748,148.5914,125.9197,141.576,156.0567,126.3759,126.1478,0.1379,,0.7837,0.6839,1.6451,,0.0000,,25.7655,,25.7703,,,,,,,,,,,11.0824,11.0489,0.1251,222.993,51.610,52.247,,,,,,,,,,,,
CalCOFI,2105SH,005,,2105_005d,05-May-2021 06:44:37,04-May-2021 22:44:37,32.51376,-118.21480,093.3 040.0,093.3,040.0,44.000,44.315,,10.9866,,10.9860,,10.9863,33.7324,,33.7336,33.7269,,33.7288,33.7312,3.1970,,3.4095,3.3720,3.2364,,3.4117,3.3620,3.3670,139.187,148.0049,125.3946,140.904,155.4509,125.7483,125.5715,0.1236,,0.6832,0.5901,1.6388,,0.0000,,25.7918,,25.7876,,,,,,,,,,,10.9813,10.9807,0.1274,220.509,51.297,51.927,,,,,,,,,,,,
CalCOFI,2105SH,005,,2105_005d,05-May-2021 06:44:38,04-May-2021 22:44:38,32.51376,-118.21480,093.3 040.0,093.3,040.0,45.000,45.323,,10.9671,,10.9669,,10.9670,33.7321,,33.7333,33.7283,,33.7302,33.7318,3.1617,,3.3726,3.3348,3.1880,,3.3615,3.3116,3.3232,137.652,146.4002,123.9577,138.795,153.7930,123.7788,123.8683,0.1185,,0.6471,0.5566,1.6321,,0.0000,,25.7951,,25.7922,,,,,,,,,,,10.9616,10.9614,0.1296,220.225,50.710,51.129,,,,,,,,,,,,
CalCOFI,2105SH,005,,2105_005d,05-May-2021 06:44:39,04-May-2021 22:44:39,32.51376,-118.21480,093.3 040.0,093.3,040.0,46.000,46.330,,10.9499,,10.9497,,10.9498,33.7388,,33.7400,33.7366,,33.7385,33.7393,3.1134,,3.3221,3.2840,3.1801,,3.3533,3.3034,3.2937,135.548,144.2007,121.9881,138.452,151.5207,123.4585,122.7233,0.1180,,0.6436,0.5533,1.6245,,0.0000,,25.8034,,25.8017,,,,,,,,,,,10.9444,10.9441,0.1318,219.459,49.919,50.987,,,,,,,,,,,,
CalCOFI,2105SH,005,,2105_005d,05-May-2021 06:44:44,04-May-2021 22:44:44,32.51376,-118.21480,093.3 040.0,093.3,040.0,47.000,47.337,,10.9548,,10.9625,,10.9587,33.7537,,33.7549,33.7474,,33.7493,33.7521,3.1202,,3.3292,3.2911,3.1867,,3.3602,3.3103,3.3007,135.841,144.5070,122.2624,138.736,151.8372,123.7237,122.9931,0.1024,,0.5324,0.4510,1.6023,,0.0000,,25.8141,,25.8079,,,,,,,,,,,10.9491,10.9567,0.1342,218.460,50.037,51.110,,,,,,,,,,,,
CalCOFI,2105SH,005,,2105_005d,05-May-2021 06:44:45,04-May-2021 22:44:45,32.51376,-118.21480,093.3 040.0,093.3,040.0,48.000,48.345,,10.9362,,10.9360,,10.9361,33.7608,,33.7620,33.7564,,33.7583,33.7602,3.1243,,3.3335,3.2954,3.1853,,3.3587,3.3088,3.3021,136.019,144.6931,122.4290,138.676,152.0294,123.6677,123.0484,0.0907,,0.4483,0.3742,1.5947,,0.0000,,25.8230,,25.8196,,,,,,,,,,,10.9304,10.9302,0.1365,217.640,50.086,51.062,,,,,,,,,,,,
CalCOFI,2105SH,005,,2105_005d,05-May-2021 06:44:46,04-May-2021 22:44:46,32.51376,-118.21480,093.3 040.0,093.3,040.0,49.000,49.352,,10.8784,,10.8823,,10.8804,33.7534,,33.7546,33.7465,,33.7484,33.7515,3.1341,,3.3437,3.3058,3.1867,,3.3602,3.3103,3.3081,136.446,145.1394,122.8287,138.734,152.4906,123.7218,123.2753,0.0861,,0.4150,0.3440,1.5921,,0.0000,,25.8275,,25.8215,,,,,,,,,,,10.8725,10.8764,0.1387,217.228,50.179,51.022,,,,,,,,,,,,
CalCOFI,2105SH,005,,2105_005d,05-May-2021 06:44:47,04-May-2021 22:44:47,32.51376,-118.21480,093.3 040.0,093.3,040.0,50.000,50.359,,10.8490,,10.8488,,10.8489,33.7472,,33.7484,33.7431,,33.7450,33.7467,3.1428,,3.3528,3.3149,3.1896,,3.3632,3.3133,3.3141,136.825,145.5357,123.1835,138.859,152.8999,123.8386,123.5111,0.0895,,0.4396,0.3663,1.5896,,0.0000,,25.8279,,25.8248,,,,,,,,,,,10.8430,10.8428,0.1409,217.208,50.285,51.030,,,,,,,,,,,,
CalCOFI,2105SH,005,,2105_005d,05-May-2021 06:44:48,04-May-2021 22:44:48,32.51376,-118.21480,093.3 040.0,093.3,040.0,51.000,51.366,,10.8357,,10.8355,,10.8356,33.7458,,33.7470,33.7432,,33.7451,33.7461,3.1487,,3.3590,3.3211,3.1876,,3.3611,3.3112,3.3162,137.081,145.8033,123.4231,138.775,153.1764,123.7601,123.5916,0.0949,,0.4785,0.4018,1.5864,,0.0000,,25.8292,,25.8273,,,,,,,,,,,10.8296,10.8293,0.1430,217.111,50.363,50.985,51,10.708,,,141.53,0.417,0.197,19.70,0.00,0.00,1.57,19.19
CalCOFI,2105SH,005,,2105_005d,05-May-2021 06:44:52,04-May-2021 22:44:52,32.51376,-118.21480,093.3 040.0,093.3,040.0,52.000,52.374,,10.8580,,10.8637,,10.8609,33.7436,,33.7448,33.7438,,33.7457,33.7453,3.0921,,3.2998,3.2615,3.1395,,3.3113,3.2612,3.2614,134.615,143.2253,121.1147,136.682,150.5131,121.8055,121.4601,0.1021,,0.5303,0.4490,1.5749,,0.0000,,25.8236,,25.8227,,,,,,,,,,,10.8517,10.8575,0.1454,217.669,49.480,50.246,,,,,,,,,,,,
CalCOFI,2105SH,005,,2105_005d,05-May-2021 06:44:54,04-May-2021 22:44:54,32.51376,-118.21480,093.3 040.0,093.3,040.0,53.000,53.381,,10.7826,,10.7825,,10.7826,33.7541,,33.7553,33.7482,,33.7501,33.7527,3.0703,,3.2770,3.2386,3.1043,,3.2748,3.2246,3.2316,133.666,142.2332,120.2263,135.146,149.4882,120.3711,120.2987,0.0902,,0.4447,0.3709,1.5723,,0.0000,,25.8451,,25.8405,,,,,,,,,,,10.7762,10.7761,0.1475,215.642,49.056,49.598,,,,,,,,,,,,
CalCOFI,2105SH,005,,2105_005d,05-May-2021 06:44:55,04-May-2021 22:44:55,32.51376,-118.21480,093.3 040.0,093.3,040.0,54.000,54.388,,10.6879,,10.6872,,10.6876,33.7679,,33.7691,33.7632,,33.7651,33.7671,3.0619,,3.2682,3.2297,3.1062,,3.2768,3.2266,3.2282,133.295,141.8454,119.8791,135.223,149.0875,120.4430,120.1611,0.0779,,0.3555,0.2902,1.5690,,0.0000,,25.8726,,25.8690,,,,,,,,,,,10.6814,10.6808,0.1497,213.047,48.827,49.531,,,,,,,,,,,,